TimeCST,TemperatureF,Dew PointF,Humidity,Sea Level PressureIn,VisibilityMPH,Wind Direction,Wind SpeedMPH,Gust SpeedMPH,PrecipitationIn,Events,Conditions,WindDirDegrees,DateUTC
12:53 AM,52.0,46.9,83,30.18,10.0,Calm,Calm,-,N/A,,Overcast,0,2012-11-20 06:53:00
1:53 AM,54.0,46.0,75,30.18,10.0,Calm,Calm,-,N/A,,Mostly Cloudy,0,2012-11-20 07:53:00
2:53 AM,54.0,46.0,75,30.18,10.0,South,3.5,-,N/A,,Mostly Cloudy,170,2012-11-20 08:53:00
3:53 AM,53.1,45.0,74,30.17,10.0,South,3.5,-,N/A,,Partly Cloudy,170,2012-11-20 09:53:00
4:53 AM,54.0,46.0,75,30.18,10.0,Calm,Calm,-,N/A,,Scattered Clouds,0,2012-11-20 10:53:00
5:53 AM,53.1,46.9,80,30.19,10.0,Calm,Calm,-,N/A,,Overcast,0,2012-11-20 11:53:00
6:53 AM,54.0,46.9,77,30.20,10.0,Calm,Calm,-,0.00,,Overcast,0,2012-11-20 12:53:00
7:53 AM,55.0,50.0,83,30.21,10.0,Calm,Calm,-,N/A,,Overcast,0,2012-11-20 13:53:00
8:53 AM,57.9,50.0,75,30.22,10.0,Calm,Calm,-,N/A,,Overcast,0,2012-11-20 14:53:00
9:53 AM,61.0,50.0,67,30.23,10.0,Calm,Calm,-,N/A,,Overcast,0,2012-11-20 15:53:00
10:53 AM,64.9,52.0,63,30.22,10.0,Calm,Calm,-,N/A,,Overcast,0,2012-11-20 16:53:00
11:53 AM,68.0,51.1,55,30.19,10.0,Calm,Calm,-,N/A,,Scattered Clouds,0,2012-11-20 17:53:00
12:53 PM,72.0,54.0,53,30.16,10.0,Calm,Calm,-,N/A,,Clear,0,2012-11-20 18:53:00
1:53 PM,73.0,54.0,51,30.14,10.0,South,3.5,-,N/A,,Clear,170,2012-11-20 19:53:00
2:53 PM,73.0,55.0,53,30.12,10.0,Calm,Calm,-,N/A,,Clear,0,2012-11-20 20:53:00
3:53 PM,73.9,55.0,52,30.13,10.0,Variable,3.5,-,N/A,,Clear,0,2012-11-20 21:53:00
4:53 PM,70.0,55.0,59,30.12,10.0,SSW,4.6,-,N/A,,Clear,210,2012-11-20 22:53:00
5:53 PM,64.0,55.0,73,30.13,10.0,Calm,Calm,-,N/A,,Clear,0,2012-11-20 23:53:00
6:53 PM,61.0,54.0,78,30.14,10.0,Calm,Calm,-,N/A,,Clear,0,2012-11-21 00:53:00
7:53 PM,57.9,54.0,87,30.17,10.0,Calm,Calm,-,N/A,,Clear,0,2012-11-21 01:53:00
8:53 PM,55.9,52.0,87,30.18,10.0,Calm,Calm,-,N/A,,Clear,0,2012-11-21 02:53:00
9:53 PM,55.9,54.0,93,30.18,7.0,Calm,Calm,-,N/A,,Clear,0,2012-11-21 03:53:00
10:53 PM,53.1,52.0,96,30.18,5.0,Calm,Calm,-,N/A,,Clear,0,2012-11-21 04:53:00
11:53 PM,55.0,54.0,96,30.18,5.0,Calm,Calm,-,N/A,,Clear,0,2012-11-21 05:53:00